Temp
13 13 13 13 13 12 12 12 12 12 12 12 12 12 12 12 12 12 12 12 12 12 12 12 12 12 12 12 12 11 11 11 12 11 11 10 10 10 10 11 11 11 11
13 13 13 13 13 12 12 12 12 12 12 12 13 13 12 12 12 12 12 12 12 12 13 13 12 12 12 12 11 11 11 11 12 11 11 10 10 10 11 11 11 11 11
14 13 13 13 12 12 12 13 12 12 12 12 12 12 12 12 12 12 12 12 12 12 13 13 12 12 12 12 11 11 11 11 11 11 10 10 10 10 11 11 11 11 11
14 13 13 13 12 12 12 13 13 12 12 12 12 12 12 12 12 12 12 12 12 12 12 12 12 12 12 12 11 11 11 11 11 11 11 10 10 10 11 11 11 11 11
14 13 13 13 12 12 13 13 13 13 12 12 12 12 12 12 12 12 12 13 12 11 10 11 11 12 12 11 12 11 11 11 11 11 11 10 10 10 11 11 11 11 12
14 13 13 13 13 12 12 13 13 13 12 12 12 12 12 12 12 12 12 12 12 11 11 10 11 11 11 11 11 11 10 11 11 11 11 11 11 11 11 11 12 12 11
14 14 13 13 13 13 12 12 13 12 12 12 12 11 11 11 11 11 11 11 11 11 10 11 11 11 10 10 11 10 11 11 11 12 12 12 12 12 12 12 12 12 12
14 14 13 13 13 13 13 13 13 13 12 12 12 12 11 10 11 10 10 10 11 10 11 11 11 11 10 10 11 11 11 11 11 11 11 12 12 13 13 13 12 12 12
14 14 14 13 13 13 13 13 13 13 13 12 12 12 11 11 10 10 10 10 11 10 10 10 11 10 11 11 11 12 12 12 12 12 12 12 12 12 12 13 13 12 11
15 15 14 13 13 13 13 13 13 13 13 12 12 12 12 11 11 11 11 11 11 11 11 11 11 11 12 12 12 12 12 12 12 12 12 13 13 13 13 12 12 12 12
15 15 14 14 13 13 13 13 13 13 13 12 12 12 12 12 12 11 11 12 12 12 12 11 11 11 12 12 13 13 13 13 13 13 13 13 13 13 13 12 12 12 11
16 15 15 14 13 13 13 13 13 13 13 13 13 13 13 13 12 12 12 12 13 13 12 12 12 12 12 13 13 12 12 13 13 13 13 13 13 13 13 12 12 12 11
16 15 15 14 14 13 13 13 13 13 13 13 13 13 13 13 13 13 12 12 12 12 12 12 12 12 12 13 12 12 12 13 13 13 13 13 13 13 13 12 12 11 11
16 16 15 15 14 13 13 13 13 13 13 13 13 13 13 13 13 13 12 12 12 12 12 12 12 12 13 13 13 13 13 13 13 13 13 13 13 13 12 11 11 10 10
17 16 16 15 14 14 13 13 13 13 14 14 14 14 13 13 13 13 13 13 12 12 12 12 12 13 13 13 13 13 13 13 13 13 13 13 13 12 11 11 10 10 9
17 16 16 16 15 15 14 13 13 13 13 13 13 14 14 13 13 13 13 12 12 13 13 13 13 13 14 14 14 14 14 14 13 13 13 13 13 12 11 11 9 8 8
18 17 16 16 16 15 15 15 14 13 13 13 13 13 13 13 13 12 12 12 12 12 13 13 14 14 14 14 14 14 15 14 14 14 14 13 12 11 10 10 9 8 7
19 18 17 16 16 16 15 15 15 15 14 14 13 13 13 12 12 12 12 12 12 13 13 13 14 14 14 14 14 14 14 14 14 14 13 12 11 11 10 9 9 8 7
20 19 18 17 17 17 16 16 16 16 15 15 15 14 13 13 12 12 12 12 13 13 14 14 15 15 15 15 15 15 14 14 14 14 14 13 11 10 9 9 8 7 7
20 20 19 18 17 17 17 17 17 16 16 16 15 15 15 14 14 13 13 13 13 14 14 15 15 15 15 15 15 14 14 14 14 13 13 13 12 10 9 9 7 7 6
21 20 19 19 18 18 18 17 17 17 17 17 17 16 16 16 16 15 15 15 15 15 15 15 15 15 15 15 14 14 14 14 14 13 13 11 10 9 8 8 6 6 5
22 21 20 19 19 18 18 18 18 18 18 17 17 17 17 16 16 16 16 16 16 16 15 15 15 15 15 15 15 14 14 14 13 13 13 12 10 9 8 6 5 4 3
22 22 21 20 19 19 18 18 18 18 18 18 18 18 17 17 16 16 17 16 16 16 16 15 15 15 15 15 15 15 15 14 14 14 13 12 11 9 6 4 3 2 2
22 22 21 21 20 20 19 19 18 18 18 18 18 18 18 17 17 17 17 17 16 16 16 16 15 15 15 15 15 15 15 14 12 13 12 12 10 8 6 2 0 1 1
22 22 22 21 21 21 20 20 20 19 19 18 18 18 18 18 18 17 17 17 17 16 16 16 16 16 15 15 15 15 15 14 13 12 11 10 9 7 5 2 -0 1 1
21 22 22 21 21 20 20 20 20 20 20 20 19 19 19 18 18 18 17 17 17 17 17 16 16 16 16 15 15 15 14 13 13 11 10 9 8 5 3 1 0 1 0
Height
1451 1451 1452 1452 1452 1451 1449 1448 1448 1448 1448 1450 1452 1454 1457 1459 1462 1464 1467 1469 1472 1474 1475 1478 1480 1482 1485 1488 1492 1496 1497 1502 1503 1510 1513 1519 1526 1531 1538 1545 1551 1555 1560
1450 1451 1452 1452 1452 1451 1449 1449 1449 1448 1449 1450 1452 1455 1458 1460 1463 1465 1467 1469 1472 1473 1476 1479 1482 1484 1488 1491 1494 1496 1498 1502 1504 1509 1514 1521 1528 1535 1541 1547 1552 1556 1560
1449 1451 1452 1452 1452 1452 1450 1450 1450 1450 1451 1452 1453 1456 1459 1461 1463 1465 1467 1470 1472 1474 1477 1480 1483 1486 1489 1492 1495 1497 1500 1502 1507 1511 1517 1523 1530 1537 1543 1548 1553 1556 1559
1449 1451 1452 1453 1453 1453 1452 1452 1452 1453 1453 1454 1455 1457 1460 1463 1465 1466 1468 1470 1472 1475 1477 1480 1483 1487 1491 1493 1496 1499 1502 1505 1508 1514 1520 1524 1531 1538 1544 1548 1553 1556 1561
1449 1451 1452 1453 1454 1455 1453 1454 1455 1455 1456 1457 1458 1459 1461 1464 1467 1468 1470 1472 1474 1476 1479 1483 1486 1489 1492 1495 1497 1500 1504 1507 1512 1516 1519 1527 1533 1538 1544 1549 1552 1557 1561
1449 1451 1452 1454 1455 1456 1456 1455 1456 1457 1458 1459 1461 1462 1464 1466 1468 1470 1473 1475 1476 1478 1481 1485 1488 1492 1494 1498 1500 1504 1507 1508 1514 1518 1523 1529 1535 1539 1544 1548 1552 1556 1560
1448 1450 1452 1454 1456 1457 1458 1458 1458 1459 1460 1461 1462 1463 1464 1466 1468 1471 1474 1476 1479 1481 1484 1487 1490 1492 1495 1500 1505 1509 1512 1516 1520 1524 1527 1532 1536 1541 1545 1548 1551 1555 1557
1447 1450 1453 1455 1457 1459 1460 1460 1461 1461 1462 1463 1464 1464 1464 1464 1468 1471 1475 1478 1481 1483 1486 1490 1492 1497 1501 1504 1508 1512 1516 1519 1522 1526 1532 1536 1540 1542 1545 1548 1550 1552 1555
1446 1449 1452 1455 1457 1459 1461 1462 1463 1464 1464 1466 1467 1468 1468 1468 1471 1473 1475 1479 1482 1485 1488 1492 1495 1500 1505 1509 1513 1515 1518 1521 1525 1529 1532 1536 1540 1542 1545 1548 1549 1551 1553
1443 1448 1451 1454 1457 1459 1461 1463 1465 1466 1467 1469 1470 1472 1473 1473 1475 1478 1480 1482 1485 1489 1493 1498 1502 1506 1510 1513 1516 1520 1522 1525 1528 1531 1534 1537 1540 1543 1545 1547 1549 1550 1552
1442 1447 1450 1453 1457 1460 1462 1464 1466 1468 1469 1471 1473 1475 1477 1478 1479 1481 1485 1488 1491 1494 1498 1502 1506 1509 1513 1516 1519 1523 1526 1527 1530 1533 1535 1538 1541 1543 1544 1545 1547 1549 1550
1440 1445 1449 1452 1456 1459 1463 1465 1468 1470 1471 1474 1476 1478 1480 1482 1484 1486 1488 1492 1495 1498 1501 1505 1509 1512 1515 1518 1521 1524 1527 1529 1532 1534 1536 1538 1540 1541 1543 1544 1546 1547 1549
1438 1442 1446 1450 1454 1458 1461 1465 1467 1470 1473 1475 1478 1480 1482 1485 1487 1489 1491 1494 1497 1502 1505 1508 1511 1513 1516 1519 1521 1524 1527 1530 1532 1534 1535 1537 1539 1541 1542 1544 1546 1548 1548
1435 1440 1444 1447 1451 1456 1460 1464 1467 1470 1473 1476 1479 1482 1484 1486 1489 1491 1494 1496 1498 1501 1505 1507 1510 1513 1516 1518 1521 1523 1526 1529 1531 1534 1536 1537 1538 1539 1541 1544 1545 1545 1545
1432 1437 1441 1445 1449 1453 1458 1461 1465 1469 1472 1474 1477 1481 1483 1486 1490 1493 1495 1497 1499 1502 1504 1507 1509 1511 1514 1517 1519 1522 1524 1526 1529 1532 1534 1535 1537 1539 1540 1541 1542 1543 1545
1426 1432 1437 1441 1446 1450 1454 1459 1462 1467 1470 1473 1477 1480 1483 1487 1490 1492 1495 1497 1499 1502 1504 1505 1508 1510 1512 1515 1517 1520 1522 1525 1527 1529 1531 1533 1534 1536 1537 1538 1539 1541 1543
1420 1426 1432 1437 1442 1445 1449 1454 1458 1463 1467 1470 1474 1477 1480 1484 1487 1489 1492 1495 1497 1499 1500 1503 1505 1507 1510 1513 1515 1517 1520 1523 1525 1526 1528 1529 1531 1532 1533 1535 1537 1538 1539
1416 1422 1427 1432 1437 1441 1446 1450 1454 1457 1461 1464 1468 1471 1475 1479 1482 1485 1487 1489 1491 1492 1495 1498 1501 1504 1507 1510 1512 1515 1517 1519 1521 1523 1525 1526 1527 1528 1529 1530 1532 1533 1536
1410 1416 1422 1427 1432 1437 1441 1445 1449 1452 1456 1459 1463 1466 1469 1472 1476 1478 1480 1481 1483 1486 1489 1492 1496 1499 1502 1505 1508 1511 1513 1515 1516 1518 1520 1521 1524 1525 1526 1527 1529 1531 1533
1404 1410 1415 1421 1426 1431 1436 1439 1443 1446 1450 1453 1456 1459 1463 1466 1467 1468 1471 1473 1475 1477 1481 1485 1489 1493 1496 1499 1502 1504 1506 1508 1510 1512 1513 1513 1514 1517 1520 1523 1525 1526 1528
1396 1402 1409 1415 1420 1424 1428 1432 1436 1440 1443 1446 1449 1452 1455 1457 1459 1461 1463 1465 1468 1470 1474 1478 1482 1485 1488 1491 1494 1496 1499 1501 1503 1505 1507 1508 1510 1513 1516 1517 1522 1522 1527
1389 1395 1401 1407 1412 1416 1420 1424 1428 1432 1436 1439 1443 1446 1449 1451 1452 1454 1456 1459 1462 1465 1469 1472 1475 1478 1480 1482 1485 1488 1490 1492 1495 1498 1500 1501 1504 1505 1507 1513 1515 1522 1521
1383 1389 1395 1400 1404 1408 1413 1417 1420 1424 1427 1431 1436 1439 1442 1443 1445 1447 1448 1451 1455 1458 1462 1464 1467 1469 1472 1475 1477 1479 1481 1484 1488 1488 1489 1491 1494 1497 1503 1505 1506 1514 1521
1378 1382 1388 1392 1397 1400 1404 1408 1412 1416 1420 1423 1426 1429 1434 1438 1439 1441 1443 1445 1447 1449 1452 1455 1457 1460 1463 1465 1467 1469 1471 1476 1474 1478 1481 1481 1484 1488 1489 1496 1504 1507 1512
1373 1377 1381 1385 1389 1393 1396 1399 1403 1406 1410 1416 1419 1421 1423 1426 1430 1433 1436 1438 1440 1442 1443 1445 1446 1448 1451 1453 1455 1458 1460 1463 1465 1468 1469 1472 1476 1481 1483 1486 1497 1506 1511
1366 1370 1376 1380 1382 1386 1389 1392 1395 1399 1402 1405 1409 1413 1415 1418 1419 1423 1428 1430 1432 1434 1435 1437 1438 1440 1441 1442 1444 1446 1448 1451 1453 1456 1460 1465 1467 1472 1474 1482 1491 1499 1505
Wind_Speed
5 3 1 2 4 6 7 4 3 3 6 9 12 12 9 9 9 9 8 8 10 9 10 8 7 6 9 16 12 14 14 22 26 22 22 33 29 33 34 28 23 18 14
4 3 2 2 3 5 5 5 5 5 7 8 12 12 8 8 8 8 7 8 8 11 11 10 8 10 11 11 12 14 14 18 17 27 33 35 31 28 28 22 18 13 12
4 4 4 2 3 5 6 8 7 9 9 9 9 10 10 9 8 8 8 9 9 8 9 10 11 13 12 10 12 13 12 14 26 27 34 30 28 30 25 21 14 10 9
6 5 5 3 4 6 9 8 7 9 10 11 12 12 11 10 9 9 8 8 8 8 8 8 11 13 15 12 14 14 14 18 24 26 32 30 35 30 23 17 11 9 10
8 6 6 8 7 8 9 10 8 9 10 11 11 12 11 11 11 16 13 9 8 10 11 11 13 12 10 14 14 17 18 21 25 27 35 33 31 28 25 17 12 11 11
10 8 10 10 8 7 10 10 9 9 9 10 9 10 11 11 9 9 6 9 8 11 13 13 13 16 21 18 21 23 17 23 26 25 25 26 26 24 21 15 15 15 11
14 10 12 11 10 8 9 10 10 8 8 8 7 6 8 12 10 9 6 8 9 13 15 16 18 20 18 23 24 25 22 22 20 19 22 21 22 19 17 20 17 14 14
17 13 13 13 12 10 9 8 8 9 9 12 11 9 7 13 16 10 8 9 9 13 16 17 20 22 22 24 26 21 17 16 16 15 15 17 17 18 16 15 16 13 9
20 16 13 15 14 13 10 7 7 10 11 14 13 13 13 18 16 13 17 16 19 19 18 20 26 27 26 20 17 13 18 22 24 23 21 19 19 18 15 12 10 8 6
22 18 14 17 15 14 11 9 10 11 12 13 12 11 11 15 17 18 20 25 26 25 27 26 25 22 19 16 19 21 22 22 22 21 19 17 15 13 11 10 7 6 5
21 20 17 16 17 14 13 11 12 13 13 13 13 12 12 14 16 16 17 22 24 23 26 26 21 16 15 18 19 16 15 17 17 17 16 13 11 10 10 8 6 5 2
22 23 20 17 19 17 15 14 13 14 14 15 14 15 15 16 15 15 16 17 21 23 25 22 17 14 15 17 18 17 14 12 11 12 11 10 8 6 4 3 1 1 3
25 25 22 19 20 19 19 17 16 15 16 16 15 15 16 16 16 16 15 14 17 21 21 16 13 15 16 17 17 16 13 11 10 9 9 8 7 6 5 4 4 5 5
28 27 24 22 21 21 20 19 17 17 17 17 17 16 15 15 15 15 16 16 16 18 18 17 16 15 15 16 17 17 14 12 10 10 10 9 8 9 8 8 8 6 4
30 29 27 25 21 22 21 20 19 16 16 18 19 18 18 17 15 14 14 15 16 17 18 18 18 18 18 18 18 17 16 15 15 14 12 10 12 13 13 11 9 8 7
33 33 29 29 27 23 22 21 20 17 15 15 14 14 15 14 14 14 13 13 13 15 18 20 21 22 22 22 21 20 19 18 17 15 14 14 14 14 15 14 12 11 10
32 33 32 31 30 30 27 24 22 20 19 18 17 18 16 14 15 16 16 18 19 18 20 21 23 23 24 24 24 24 22 19 18 18 18 17 16 17 19 16 15 14 13
33 32 33 32 32 30 30 28 24 22 22 23 23 22 23 22 19 19 20 21 25 28 26 25 24 24 26 26 27 26 24 23 22 21 20 20 20 21 21 20 18 16 17
35 35 33 33 33 31 29 28 28 26 25 23 23 25 26 27 26 26 27 28 28 31 30 29 27 26 27 27 28 28 27 27 26 25 22 23 25 25 25 23 20 17 18
37 35 35 33 34 33 32 30 30 30 29 28 26 25 25 28 32 33 34 34 34 33 32 33 32 31 30 30 30 31 31 32 31 29 28 28 28 29 29 26 24 24 22
39 38 37 37 35 34 33 32 31 31 31 31 28 26 24 27 29 33 35 36 36 35 33 32 33 34 34 33 33 34 34 34 33 33 32 32 32 31 31 28 25 26 22
40 38 38 39 39 37 36 34 33 31 30 31 30 29 27 28 29 30 33 36 37 36 34 33 32 32 34 36 36 36 37 37 36 34 35 34 33 33 32 31 26 26 21
39 38 37 37 38 38 38 37 37 35 34 32 31 31 33 32 31 29 29 30 33 36 36 35 34 33 32 32 32 35 39 39 38 40 39 36 35 35 33 32 30 28 17
37 37 36 34 36 35 35 35 35 35 35 34 31 30 31 34 32 30 27 26 27 29 31 34 36 37 35 33 33 35 35 30 39 47 42 40 41 35 31 37 34 27 25
36 35 35 34 34 33 32 31 30 29 28 30 31 29 27 28 30 31 30 28 26 24 25 26 29 31 32 33 34 36 36 38 40 42 41 41 36 34 34 38 33 24 29
34 33 34 35 35 35 34 32 29 27 24 25 26 26 26 27 26 27 30 30 28 27 28 27 26 28 28 30 32 34 36 37 37 36 36 36 37 33 34 37 30 32 30
Wind_Direction
181 166 106 28 29 17 24 57 92 102 142 158 174 173 162 166 168 172 173 179 176 185 187 187 189 185 163 158 179 185 191 191 161 163 166 163 154 146 148 155 162 149 153
185 173 165 54 45 23 37 87 87 93 131 153 171 175 167 165 175 179 179 169 166 173 166 169 169 167 171 175 174 174 172 175 181 152 156 162 163 150 155 150 141 139 148
178 158 168 106 78 39 98 102 94 103 114 126 150 168 169 161 154 152 161 163 163 165 176 181 179 190 185 175 174 178 175 171 167 158 160 165 165 167 158 153 144 151 125
167 161 164 139 122 76 116 107 94 109 119 123 127 132 140 140 139 141 154 160 165 151 160 153 164 168 171 173 173 168 147 151 157 154 163 161 161 161 163 161 158 140 136
176 169 158 144 131 104 114 130 97 108 120 122 123 132 137 134 123 130 123 113 126 140 134 140 145 154 160 155 166 168 161 155 155 158 156 159 163 171 175 172 164 153 146
185 173 156 150 137 121 108 124 127 126 126 118 133 139 134 142 143 155 132 115 116 135 138 141 150 158 154 129 132 143 145 148 159 161 159 162 166 166 172 175 165 157 144
190 181 168 157 149 127 121 113 113 133 137 130 124 150 185 197 177 178 161 132 123 139 144 150 144 156 142 145 140 129 123 121 130 148 151 159 163 164 168 164 159 155 150
195 188 177 169 157 147 132 119 110 120 132 125 113 106 107 182 184 189 180 168 136 144 157 151 149 140 133 135 140 137 136 135 137 137 144 146 152 149 145 146 156 159 154
199 193 184 179 167 155 151 134 119 129 129 133 120 104 100 112 122 131 151 151 142 131 138 142 143 143 139 133 135 142 134 131 128 132 138 142 146 147 151 158 162 173 173
199 194 190 183 180 161 156 145 137 134 136 137 128 122 107 109 120 120 129 138 138 137 136 138 138 137 142 137 137 142 138 138 140 141 144 150 154 155 158 167 173 177 172
196 195 195 189 186 175 164 156 150 146 143 141 138 130 125 120 117 119 142 145 144 149 147 145 145 140 140 141 147 146 145 142 151 160 153 151 154 160 158 145 143 135 134
198 197 195 191 190 186 180 169 163 163 154 148 146 140 134 130 130 128 123 151 160 155 156 153 153 156 155 153 151 152 153 150 149 159 166 162 158 153 151 156 173 274 270
202 198 195 192 193 193 189 187 180 177 177 167 162 154 148 144 140 136 135 142 156 167 166 170 170 167 167 170 171 169 174 184 193 191 180 176 182 203 220 219 230 252 257
202 200 196 195 194 197 196 198 194 191 190 190 183 178 171 167 166 162 157 156 162 173 182 184 184 183 182 183 186 188 192 197 205 203 197 203 217 224 221 234 245 249 250
202 201 199 197 197 197 201 204 206 206 206 198 197 195 193 190 181 178 180 178 179 182 188 193 196 196 197 197 197 201 200 200 204 209 218 233 234 225 223 232 246 248 238
203 202 201 200 200 200 200 204 210 214 214 213 218 215 211 211 205 202 198 199 205 208 207 208 209 209 210 208 207 205 206 208 214 225 238 243 240 235 233 230 234 235 241
206 202 202 202 203 206 206 206 207 210 214 217 215 217 220 221 212 215 220 223 222 222 223 223 221 220 218 216 216 215 216 220 228 237 245 245 242 237 227 229 230 232 224
210 209 205 205 205 208 213 214 214 212 213 216 213 215 216 218 217 217 222 225 226 225 225 225 225 226 224 224 222 222 225 229 236 244 251 249 242 238 232 231 232 228 214
210 212 211 211 211 211 211 218 222 223 222 224 221 218 218 219 220 221 224 229 231 230 228 230 228 229 231 231 232 233 235 239 244 248 251 258 247 241 234 233 230 222 211
213 215 214 214 214 215 216 218 222 227 229 230 229 230 228 226 226 224 226 228 229 229 229 231 232 234 234 234 237 239 241 244 246 248 250 249 247 240 237 236 230 217 203
213 215 217 219 219 219 222 223 224 228 232 234 234 234 235 237 238 235 233 232 232 233 234 233 234 235 239 241 241 241 245 247 251 252 254 249 242 239 234 229 227 208 203
214 217 218 221 223 224 227 229 230 232 234 237 238 239 239 240 243 244 242 242 240 241 243 245 245 244 244 244 245 246 246 247 251 255 255 251 242 239 230 227 210 204 192
217 220 220 224 227 229 231 234 235 236 238 240 242 243 243 244 246 248 248 246 245 246 248 250 252 252 253 253 254 254 254 255 259 257 253 248 239 236 232 219 198 193 200
221 222 223 225 229 231 233 236 239 241 243 244 243 244 249 251 251 251 254 255 253 250 250 250 252 255 259 259 257 256 259 259 260 260 253 248 238 224 232 207 193 192 201
223 223 225 225 229 231 233 235 238 239 241 245 247 245 245 247 250 253 254 253 253 254 255 256 257 259 260 261 263 263 261 254 257 259 249 244 230 232 225 201 186 195 196
219 221 228 231 231 234 235 236 236 238 241 243 248 251 253 256 254 255 258 257 258 259 259 262 263 262 261 262 262 261 261 262 262 257 249 239 223 219 207 186 190 186 206